Weather History for Canby, MN

Change the Weather History Date:

Wednesday, January 23, 2013

  Actual Average (KMML) Record (KMML)
Temperature  
Mean Temperature 4 °F -  
Max Temperature 15 °F 26 °F 59 °F (1981)
Min Temperature -8 °F 6 °F -23 °F (1963)
Degree Days  
Heating Degree Days 62    
Moisture  
Dew Point 0 °F    
Average Humidity 77    
Maximum Humidity 88    
Minimum Humidity 64    
Precipitation  
Precipitation 0.00 in - - ()
Sea Level Pressure  
Sea Level Pressure 30.34 in    
Wind  
Wind Speed 8 mph (NNW)    
Max Wind Speed 20 mph    
Max Gust Speed 26 mph    
Visibility 9 miles    
Events Snow    
Averages and records for this station are not official NWS values.
T = Trace of Precipitation, MM = Missing Value Source: NWS Daily Summary

Daily Weather History Graph

Daily Weather History Graph

Search for Another Location

Airport:

Trip Planner

Search our weather history database for the weather conditions in past years. The results will help you decide how hot, cold, wet, or windy it might be!

Date:

Astronomy

Jan. 23, 2013 Rise Set
Actual Time 7:52 AM CST 5:21 PM CST
Civil Twilight 7:21 AM CST 5:53 PM CST
Nautical Twilight 6:45 AM CST 6:29 PM CST
Astronomical Twilight 6:10 AM CST 7:03 PM CST
Moon 2:30 PM CST (1/23) 5:07 AM CST (1/23)
Length of Visible Light 10h 32m
Length of Day
9h 28m
Waxing Gibbous, 89% of the Moon is Illuminated
Jan 23
Waxing Gibbous
Jan 26
Full
Feb 3
Last Quarter
Feb 10
New
Feb 17
First Quarter

Hourly Weather History & Observations

Time (CST) Temp. Windchill Dew Point Humidity Pressure Visibility Wind Dir Wind Speed Gust Speed Precip Events Conditions
12:16 AM 13.6 °F - 10.4 °F 87% 30.16 in 3.0 mi Calm Calm - N/A Snow Light Snow
12:36 AM 14.0 °F - 10.4 °F 86% 30.15 in 5.0 mi Calm Calm - N/A Snow Light Snow
12:55 AM 14.2 °F - 10.8 °F 86% 30.15 in 10.0 mi Calm Calm - N/A Snow Light Snow
1:16 AM 14.2 °F - 10.9 °F 87% 30.14 in 10.0 mi Calm Calm - N/A Snow Light Snow
1:35 AM 14.5 °F - 10.9 °F 86% 30.14 in 10.0 mi Calm Calm - N/A   Overcast
1:56 AM 14.9 °F - 11.1 °F 85% 30.13 in 10.0 mi Calm Calm - N/A   Overcast
2:16 AM 14.9 °F - 11.3 °F 86% 30.14 in 10.0 mi Calm Calm - N/A   Overcast
2:35 AM 14.9 °F 9.2 °F 11.7 °F 87% 30.14 in 10.0 mi West 3.5 mph - N/A   Overcast
2:55 AM 15.6 °F - 11.7 °F 84% 30.14 in 10.0 mi Calm Calm - N/A Snow Light Snow
3:16 AM 14.9 °F - 11.3 °F 86% 30.13 in 3.0 mi Calm Calm - N/A Snow Light Snow
3:36 AM 14.7 °F - 11.3 °F 86% 30.13 in 7.0 mi Calm Calm - N/A Snow Light Snow
3:55 AM 14.4 °F 6.9 °F 11.3 °F 88% 30.14 in 10.0 mi WNW 4.6 mph - N/A Snow Light Snow
4:16 AM 13.8 °F 4.9 °F 10.4 °F 86% 30.14 in 10.0 mi WNW 5.8 mph - N/A   Overcast
4:36 AM 13.6 °F 3.5 °F 10.0 °F 86% 30.14 in 10.0 mi NW 6.9 mph - N/A   Mostly Cloudy
4:56 AM 12.9 °F 3.8 °F 9.5 °F 86% 30.14 in 10.0 mi NW 5.8 mph - N/A   Scattered Clouds
5:16 AM 12.4 °F 3.1 °F 9.3 °F 88% 30.13 in 10.0 mi NW 5.8 mph - N/A   Clear
5:35 AM 13.1 °F 0.9 °F 9.7 °F 86% 30.14 in 10.0 mi WNW 9.2 mph - N/A   Clear
5:55 AM 11.8 °F 1.3 °F 8.6 °F 87% 30.14 in 10.0 mi WNW 6.9 mph - N/A   Clear
6:16 AM 11.3 °F 0.7 °F 7.9 °F 86% 30.15 in 10.0 mi WNW 6.9 mph - N/A   Clear
6:35 AM 11.5 °F -1.1 °F 8.4 °F 87% 30.15 in 10.0 mi WNW 9.2 mph - N/A   Clear
6:56 AM 12.4 °F -0.8 °F 9.0 °F 86% 30.16 in 10.0 mi WNW 10.4 mph - N/A   Clear
7:15 AM 12.9 °F -0.9 °F 9.3 °F 86% 30.16 in 10.0 mi WNW 11.5 mph - N/A   Clear
7:36 AM 12.9 °F -0.9 °F 9.1 °F 85% 30.18 in 10.0 mi NW 11.5 mph 17.3 mph N/A   Clear
7:56 AM 12.2 °F -1.0 °F 8.6 °F 85% 30.18 in 10.0 mi NW 10.4 mph - N/A   Scattered Clouds
8:16 AM 12.0 °F -4.0 °F 8.2 °F 85% 30.19 in 10.0 mi NNW 15.0 mph 20.7 mph N/A   Scattered Clouds
8:35 AM 11.3 °F -4.3 °F 7.3 °F 84% 30.21 in 10.0 mi NNW 13.8 mph - N/A   Clear
8:56 AM 10.4 °F -4.8 °F 6.4 °F 84% 30.22 in 10.0 mi NW 12.7 mph 16.1 mph N/A   Scattered Clouds
9:16 AM 9.9 °F -5.5 °F 5.4 °F 82% 30.24 in 10.0 mi NW 12.7 mph - N/A   Scattered Clouds
9:35 AM 9.5 °F -7.8 °F 4.8 °F 81% 30.25 in 5.0 mi NNW 16.1 mph 20.7 mph N/A   Clear
9:55 AM 9.3 °F -8.0 °F 3.9 °F 79% 30.26 in 7.0 mi NNW 16.1 mph 24.2 mph N/A   Scattered Clouds
10:16 AM 9.0 °F -9.0 °F 3.0 °F 77% 30.28 in 10.0 mi NNW 17.3 mph 25.3 mph N/A   Clear
10:36 AM 9.5 °F -7.2 °F 3.0 °F 75% 30.29 in 10.0 mi NW 15.0 mph 20.7 mph N/A   Clear
10:55 AM 9.5 °F -7.2 °F 2.3 °F 73% 30.30 in 10.0 mi NNW 15.0 mph 19.6 mph N/A   Clear
11:16 AM 9.5 °F -6.6 °F 2.7 °F 74% 30.31 in 10.0 mi NNW 13.8 mph - N/A   Clear
11:35 AM 8.8 °F -8.7 °F 2.3 °F 75% 30.32 in 10.0 mi NNW 16.1 mph 25.3 mph N/A   Clear
11:56 AM 8.1 °F -10.2 °F 1.9 °F 76% 30.33 in 5.0 mi NNW 17.3 mph 23.0 mph N/A   Haze
12:16 PM 7.2 °F -11.4 °F 0.7 °F 75% 30.34 in 7.0 mi NNW 17.3 mph 26.5 mph N/A   Mostly Cloudy
12:35 PM 7.3 °F -12.2 °F -0.2 °F 71% 30.34 in 10.0 mi NNW 19.6 mph 24.2 mph N/A   Scattered Clouds
12:56 PM 7.2 °F -11.9 °F -0.0 °F 72% 30.35 in 10.0 mi NNW 18.4 mph - N/A   Scattered Clouds
1:16 PM 6.6 °F -12.6 °F -1.5 °F 69% 30.35 in 10.0 mi NNW 18.4 mph 25.3 mph N/A   Scattered Clouds
1:36 PM 6.6 °F -13.1 °F -1.8 °F 68% 30.35 in 10.0 mi NNW 19.6 mph 26.5 mph N/A   Clear
1:56 PM 6.3 °F -13.6 °F -2.4 °F 68% 30.37 in 10.0 mi NNW 19.6 mph 24.2 mph N/A   Scattered Clouds
2:16 PM 5.7 °F -13.8 °F -2.7 °F 68% 30.38 in 10.0 mi NNW 18.4 mph 25.3 mph N/A   Clear
2:35 PM 5.0 °F -14.7 °F -3.5 °F 68% 30.40 in 10.0 mi NNW 18.4 mph 25.3 mph N/A   Clear
3:16 PM 4.5 °F -15.9 °F -2.6 °F 73% 30.42 in 3.0 mi NNW 19.6 mph 25.3 mph N/A   Haze
3:35 PM 2.8 °F -17.5 °F -4.7 °F 71% 30.42 in 7.0 mi NNW 18.4 mph 24.2 mph N/A   Mostly Cloudy
3:56 PM 2.7 °F -16.0 °F -5.8 °F 68% 30.43 in 10.0 mi NNW 15.0 mph 21.9 mph N/A   Scattered Clouds
4:16 PM 2.3 °F -17.7 °F -6.2 °F 68% 30.45 in 10.0 mi North 17.3 mph 23.0 mph N/A   Clear
4:36 PM 1.4 °F -19.4 °F -7.6 °F 66% 30.47 in 10.0 mi NNW 18.4 mph 21.9 mph N/A   Clear
4:55 PM 0.5 °F -18.7 °F -8.1 °F 67% 30.48 in 10.0 mi NNW 15.0 mph 21.9 mph N/A   Clear
5:15 PM 0.1 °F -19.8 °F -6.9 °F 72% 30.50 in 10.0 mi North 16.1 mph - N/A   Clear
5:36 PM -0.4 °F -18.4 °F -7.6 °F 72% 30.50 in 10.0 mi North 12.7 mph - N/A   Clear
5:56 PM -0.9 °F -21.2 °F -9.4 °F 67% 30.51 in 10.0 mi NNW 16.1 mph 20.7 mph N/A   Clear
6:15 PM -1.8 °F -21.0 °F -10.3 °F 67% 30.51 in 10.0 mi North 13.8 mph 21.9 mph N/A   Clear
6:36 PM -2.7 °F -22.9 °F -9.9 °F 71% 30.52 in 10.0 mi North 15.0 mph - N/A   Clear
6:56 PM -3.3 °F -24.2 °F -11.2 °F 69% 30.53 in 10.0 mi North 16.1 mph 20.7 mph N/A   Clear
7:16 PM -4.0 °F -21.2 °F -11.7 °F 69% 30.53 in 10.0 mi NNW 10.4 mph 17.3 mph N/A   Clear
7:36 PM -4.4 °F -20.6 °F -13.0 °F 66% 30.54 in 10.0 mi NNW 9.2 mph - N/A   Clear
7:56 PM -4.9 °F -21.3 °F -13.0 °F 68% 30.55 in 10.0 mi North 9.2 mph - N/A   Clear
8:15 PM -5.3 °F -23.7 °F -14.6 °F 64% 30.55 in 10.0 mi NNW 11.5 mph - N/A   Clear
8:35 PM -5.8 °F -24.4 °F -14.8 °F 65% 30.56 in 10.0 mi NNW 11.5 mph - N/A   Clear
8:56 PM -6.2 °F -22.8 °F -13.5 °F 70% 30.56 in 10.0 mi NNW 9.2 mph - N/A   Clear
9:16 PM -6.7 °F -23.5 °F -14.8 °F 68% 30.57 in 10.0 mi NNW 9.2 mph - N/A   Clear
9:35 PM -6.9 °F -23.7 °F -14.8 °F 68% 30.57 in 10.0 mi North 9.2 mph - N/A   Clear
9:56 PM -7.1 °F -23.9 °F -13.9 °F 72% 30.58 in 10.0 mi North 9.2 mph - N/A   Mostly Cloudy
10:16 PM -7.4 °F -20.4 °F -12.3 °F 79% 30.58 in 2.5 mi North 5.8 mph - N/A   Overcast
10:35 PM -8.0 °F -26.1 °F -14.1 °F 75% 30.59 in 10.0 mi North 10.4 mph - N/A   Scattered Clouds
10:56 PM -8.5 °F -25.7 °F -16.4 °F 68% 30.59 in 10.0 mi North 9.2 mph - N/A   Clear
11:15 PM -8.7 °F -25.9 °F -15.9 °F 71% 30.60 in 10.0 mi North 9.2 mph - N/A   Clear
11:35 PM -8.7 °F -23.4 °F -15.9 °F 71% 30.61 in 10.0 mi North 6.9 mph - N/A   Clear
11:56 PM -8.9 °F -23.6 °F -16.4 °F 69% 30.61 in 10.0 mi North 6.9 mph - N/A   Clear